This is the latest recevied weather packets stored in our database for station/object KD5BIG-13. If no packets are shown the sender has not sent any weather packets the latest 10 day(s).
| Time | Temp. | Humidity | Pressure | Rain* | Wind** | Luminosity | Snow |
|---|---|---|---|---|---|---|---|
| 1777725326 | 12.22° C | 99% | 1021.1 hPa | 0 mm | - | 53 W/m² | - |
| 1777725022 | 12.22° C | 99% | 1020.7 hPa | 0 mm | - | 52 W/m² | - |
| 1777724719 | 12.22° C | 99% | 1021 hPa | 0 mm | - | 44 W/m² | - |
| 1777724417 | 12.22° C | 99% | 1020.9 hPa | 0 mm | - | 37 W/m² | - |
| 1777724114 | 12.22° C | 99% | 1021 hPa | 0 mm | - | 40 W/m² | - |
| 1777723811 | 12.22° C | 99% | 1020.8 hPa | 0 mm | - | 39 W/m² | - |
| 1777723205 | 12.22° C | 99% | 1020.6 hPa | 0 mm | - | 26 W/m² | - |
| 1777722598 | 12.22° C | 99% | 1020.2 hPa | 0 mm | - | 21 W/m² | - |
| 1777721992 | 11.67° C | 99% | 1020.1 hPa | 0 mm | - | 12 W/m² | - |
| 1777721689 | 11.67° C | 99% | 1019.8 hPa | 0 mm | - | 8 W/m² | - |
| 1777721388 | 11.67° C | 99% | 1019.8 hPa | 0 mm | - | 7 W/m² | - |
| 1777721085 | 11.67° C | 99% | 1019.9 hPa | 0 mm | - | 4 W/m² | - |
| 1777720782 | 11.67° C | 99% | 1019.7 hPa | 0 mm | - | 2 W/m² | - |
| 1777720480 | 11.67° C | 99% | 1019.7 hPa | 0 mm | - | 1 W/m² | - |
| 1777720177 | 11.67° C | 99% | 1019.3 hPa | 0 mm | - | 1 W/m² | - |
| 1777719875 | 11.67° C | 99% | 1019.5 hPa | 0 mm | - | 0 W/m² | - |
| 1777719571 | 11.67° C | 99% | 1019.4 hPa | 0 mm | - | 0 W/m² | - |
| 1777719269 | 11.67° C | 99% | 1019.3 hPa | 0 mm | - | 0 W/m² | - |
| 1777718967 | 11.67° C | 99% | 1019.2 hPa | 0 mm | - | 0 W/m² | - |
| 1777718664 | 11.67° C | 99% | 1019.3 hPa | 0 mm | - | 0 W/m² | - |
| 1777718361 | 11.67° C | 99% | 1019.2 hPa | 0 mm | - | 0 W/m² | - |
| 1777718059 | 11.67° C | 99% | 1019.3 hPa | 0 mm | - | 0 W/m² | - |
| 1777717755 | 11.67° C | 99% | 1019.3 hPa | 0 mm | - | 0 W/m² | - |
| 1777717452 | 11.67° C | 99% | 1019.4 hPa | 0 mm | - | 0 W/m² | - |
| 1777717149 | 11.67° C | 99% | 1019.2 hPa | 0 mm | - | 0 W/m² | - |
* Rain latest hour (hover to see other rain measurements)
** Current wind speed in m/s (hover to see current wind gust speed)